Dassault Systemes SA Operating Margin 2010-2024 | DASTY

Current and historical operating margin for Dassault Systemes SA (DASTY) over the last 10 years. The current operating profit margin for Dassault Systemes SA as of March 31, 2024 is 23.88%.
Dassault Systemes SA Operating Margin Historical Data
Date TTM Revenue TTM Operating Income Operating Margin
2024-03-31 $4.72B $1.00B 21.22%
2023-09-30 $4.47B $0.92B 20.48%
2023-03-31 $5.98B $1.33B 22.24%
2022-09-30 $5.81B $1.29B 22.20%
2022-03-31 $5.82B $1.30B 22.40%
2021-12-31 $5.75B $1.21B 20.97%
2021-09-30 $5.63B $1.17B 20.77%
2021-06-30 $5.47B $1.04B 18.95%
2021-03-31 $5.25B $0.88B 16.71%
2020-12-31 $5.09B $0.77B 15.06%
2020-09-30 $4.95B $0.68B 13.79%
2020-06-30 $4.76B $0.75B 15.76%
2020-03-31 $4.66B $0.83B 17.86%
2019-12-31 $4.50B $0.91B 20.24%
2019-09-30 $4.39B $1.00B 22.72%
2019-06-30 $4.33B $0.99B 22.76%
2019-03-31 $4.25B $0.99B 23.39%
2018-12-31 $4.11B $0.91B 22.11%
2018-09-30 $3.98B $0.90B 22.57%
2018-06-30 $3.90B $0.88B 22.63%
2018-03-31 $3.79B $0.86B 22.59%
2017-12-31 $3.65B $0.82B 22.55%
2017-09-30 $3.53B $0.75B 21.21%
2017-06-30 $3.46B $0.74B 21.37%
2017-03-31 $3.43B $0.74B 21.47%
2016-12-31 $3.38B $0.74B 22.01%
2016-09-30 $3.25B $0.67B 20.73%
2016-06-30 $3.18B $0.66B 20.73%
2016-03-31 $3.12B $0.65B 20.87%
2015-12-31 $3.15B $0.70B 22.29%
2015-09-30 $3.11B $0.62B 19.95%
2015-06-30 $3.07B $0.56B 18.15%
2015-03-31 $3.03B $0.52B 17.18%
2014-12-31 $2.93B $0.45B 15.37%
2014-09-30 $2.92B $0.58B 19.75%
2014-06-30 $2.89B $0.65B 22.53%
2014-03-31 $2.83B $0.68B 23.97%
2013-12-31 $2.77B $0.69B 24.97%
2013-09-30 $2.77B $0.71B 25.52%
2013-06-30 $2.73B $0.69B 25.35%
2013-03-31 $2.65B $0.66B 24.72%
2012-12-31 $2.63B $0.67B 25.34%
2012-09-30 $2.55B $0.60B 23.61%
2012-06-30 $2.50B $0.58B 23.21%
2012-03-31 $2.51B $0.59B 23.52%
2011-12-31 $2.46B $0.58B 23.35%
2011-09-30 $2.41B $0.57B 23.74%
2011-06-30 $2.33B $0.53B 22.64%
2011-03-31 $2.21B $0.49B 22.22%
2010-12-31 $2.07B $0.42B 20.25%
2010-09-30 $1.94B $0.38B 19.66%
2010-06-30 $1.85B $0.38B 20.51%
2010-03-31 $1.79B $0.35B 19.65%
2009-12-31 $1.78B $0.36B 20.06%
Sector Industry Market Cap Revenue
Computer and Technology Computer Software $49.857B $6.441B
Dassault Systemes is a worldwide recognized leader in CAD/CAM/CAE and PDM II markets. The company's mission to provide solutions to enable customersto build their digital enterprise, by defining, simulating, managing and optimizing concurrently product, manufacturing process, and resources. In this virtual space, customers create innovative, high quality, safe and affordable products. The company delivers scaleable process and design-centric solutions on both Unix and Windows NT environments.
Stock Name Country Market Cap PE Ratio
Microsoft (MSFT) United States $3306.261B 38.51
Oracle (ORCL) United States $394.391B 32.02
Salesforce (CRM) United States $248.122B 36.95
Adobe (ADBE) United States $242.101B 39.17
Intuit (INTU) United States $178.099B 55.50
Synopsys (SNPS) United States $90.142B 62.13
Cadence Design Systems (CDNS) United States $77.093B 72.94
Autodesk (ADSK) United States $53.065B 48.38
MicroStrategy (MSTR) United States $30.540B 0.00
ANSYS (ANSS) United States $27.943B 51.71
PTC (PTC) United States $21.279B 56.44
SS&C Technologies Holdings (SSNC) United States $16.746B 15.86
Manhattan Associates (MANH) United States $13.915B 68.90
Descartes Systems Group (DSGX) Canada $8.617B 72.09
Open Text (OTEX) Canada $8.406B 8.62
Trend Micro (TMICY) Japan $6.589B 47.71
CommVault Systems (CVLT) United States $5.475B 88.72
Pegasystems (PEGA) United States $5.344B 47.26
ACI Worldwide (ACIW) United States $4.497B 21.54
Blackbaud (BLKB) United States $4.090B 35.21
Progress Software (PRGS) United States $2.395B 15.39
Sapiens (SPNS) Israel $2.262B 30.84
Verint Systems (VRNT) United States $2.141B 20.05
BlackBerry (BB) Canada $1.458B 0.00
PROS Holdings (PRO) United States $1.166B 0.00
Simulations Plus (SLP) United States $0.812B 60.55
Rand Worldwide (RWWI) United States $0.672B 0.00
Magic Software Enterprises (MGIC) Israel $0.571B 12.10
American Software (AMSWA) United States $0.327B 28.11
Canaan (CAN) China $0.303B 0.00
Rigetti Computing (RGTI) United States $0.193B 0.00
OptimizeRx (OPRX) United States $0.186B 0.00
Neonode (NEON) Sweden $0.046B 0.00
Icad Inc (ICAD) United States $0.035B 0.00
NetSol Technologies (NTWK) United States $0.034B 0.00
Wetouch Technology (WETH) $0.025B 0.00
Smith Micro Software (SMSI) United States $0.023B 0.00
Hanryu Holdings (HRYU) South Korea $0.014B 0.00
GSE Systems (GVP) United States $0.011B 0.00
SAP SE (SAP) Germany $0.000B 49.03